Vagabond Aaf / Yakim, WA

3:39 PM PDT on May 27, 2018 (GMT -0700)
Vagabond Aaf / Yakim

Weather History for K1YT - February, 2014

Change the Weather History Date:

Saturday, February 15, 2014

  Actual Average (KYKM) Record (KYKM)
Temperature  
Mean Temperature 33 °F -  
Max Temperature 36 °F 46 °F 67 °F (2016)
Min Temperature 30 °F 27 °F 1 °F (1956)
Degree Days  
Heating Degree Days 32    
Moisture  
Dew Point 32 °F    
Average Humidity 96    
Maximum Humidity 100    
Minimum Humidity 82    
Precipitation  
Precipitation 0.22 in - - ()
Sea Level Pressure  
Sea Level Pressure 29.61 in    
Wind  
Wind Speed 3 mph (SW)    
Max Wind Speed 12 mph    
Max Gust Speed 14 mph    
Visibility 5 miles    
Events Fog , Rain , Snow    
Averages and records for this station are not official NWS values.
T = Trace of Precipitation, MM = Missing Value Source: NWS Daily Summary

Daily Weather History Graph

Daily Weather History Graph

Search for Another Location

Airport or City:

Astronomy

Feb. 15, 2014 Rise Set
Actual Time 7:05 AM PST 5:27 PM PST
Civil Twilight 6:34 AM PST 5:58 PM PST
Nautical Twilight 5:58 AM PST 6:33 PM PST
Astronomical Twilight 5:23 AM PST 7:08 PM PST
Moon 6:38 PM PST (2/15) 7:01 AM PST (2/15)
Length of Visible Light 11h 23m
Length of Day
10h 21m
Full, 99% of the Moon is Illuminated
Feb 15
Full
Feb 22
Last Quarter
Mar 1
New
Mar 8
First Quarter
Mar 16
Full

Hourly Weather History & Observations

Time (PST) Temp. Windchill Dew Point Humidity Pressure Visibility Wind Dir Wind Speed Gust Speed Precip Events Conditions
12:56 AM 33.6 °F 28.4 °F 29.5 °F 85% 29.96 in 12.0 mi NE 5.8 mph - N/A   Clear
1:56 AM 33.4 °F - 28.6 °F 82% 29.95 in 12.0 mi Variable 1.2 mph - N/A   Clear
2:56 AM 31.5 °F 25.8 °F 28.0 °F 87% 29.94 in 12.0 mi SW 5.8 mph - N/A   Clear
3:56 AM 31.5 °F - 28.2 °F 88% 29.93 in 12.0 mi NW 2.3 mph - N/A   Clear
4:56 AM 30.2 °F - 27.1 °F 88% 29.91 in 12.0 mi SSE 2.3 mph - N/A   Partly Cloudy
5:56 AM 30.9 °F - 27.7 °F 88% 29.89 in 12.0 mi SW 1.2 mph - N/A   Mostly Cloudy
6:56 AM 30.4 °F - 28.0 °F 91% 29.87 in 12.0 mi SSE 2.3 mph - N/A   Mostly Cloudy
7:56 AM 31.8 °F - 29.3 °F 90% 29.85 in 12.0 mi West 2.3 mph - N/A   Overcast
9:56 AM 32.9 °F 29.8 °F 30.0 °F 89% 29.81 in 5.0 mi SW 3.5 mph - N/A Rain , Snow Light Rain Showers
10:01 AM 32.0 °F 28.7 °F 30.2 °F 93% 29.81 in 2.8 mi SW 3.5 mph - N/A Rain , Snow Light Rain Showers
10:06 AM 32.0 °F - 30.2 °F 93% 29.80 in 1.9 mi Variable 1.2 mph - N/A Rain , Snow Light Rain Showers
10:41 AM 32.0 °F - 30.2 °F 93% 29.78 in 2.0 mi West 1.2 mph - N/A Snow Light Snow
10:51 AM 32.0 °F - 30.2 °F 93% 29.77 in 1.8 mi Calm Calm - N/A Rain , Snow Light Rain
10:52 AM 32.0 °F - 30.2 °F 93% 29.77 in 1.8 mi Calm Calm - N/A Rain , Snow Light Rain
10:56 AM 32.5 °F - 31.3 °F 95% 29.77 in 1.8 mi Variable 1.2 mph - 0.03 in Rain , Snow Light Rain
11:01 AM 32.0 °F - 32.0 °F 100% 29.77 in 2.2 mi Variable 1.2 mph - N/A Rain , Snow Light Rain
11:36 AM 32.0 °F - 32.0 °F 100% 29.75 in 1.9 mi WSW 2.3 mph - N/A Snow Light Snow
11:51 AM 32.0 °F - 32.0 °F 100% 29.74 in 1.6 mi Variable 1.2 mph - N/A Snow Light Snow
11:56 AM 32.4 °F - 31.5 °F 96% 29.73 in 1.5 mi WSW 1.2 mph - 0.03 in Snow Light Snow
12:16 PM 32.0 °F - 32.0 °F 100% 29.71 in 1.5 mi Variable 1.2 mph - N/A Snow Light Snow
12:41 PM 32.0 °F - 32.0 °F 100% 29.69 in 1.9 mi NE 1.2 mph - N/A Rain , Snow Light Rain
12:46 PM 32.0 °F - 32.0 °F 100% 29.68 in 2.0 mi Variable 1.2 mph - N/A Rain , Snow Light Rain
12:56 PM 33.3 °F - 32.5 °F 97% 29.67 in 2.8 mi North 1.2 mph - 0.03 in Rain , Snow Light Rain
1:11 PM 33.8 °F - 32.0 °F 93% 29.66 in 3.0 mi West 2.3 mph - N/A Rain , Snow Light Rain
1:21 PM 33.8 °F - 32.0 °F 93% 29.65 in 5.0 mi Variable 2.3 mph - N/A Rain , Snow Light Rain
1:31 PM 33.8 °F - 32.0 °F 93% 29.64 in 5.0 mi SSW 1.2 mph - N/A Rain , Snow Light Rain
1:56 PM 33.6 °F - 32.9 °F 97% 29.62 in 8.0 mi SSW 2.3 mph - 0.02 in Rain , Snow Light Rain
2:26 PM 33.8 °F 30.8 °F 32.0 °F 93% 29.61 in 6.0 mi WSW 3.5 mph - N/A Snow Light Snow
2:56 PM 33.8 °F - 33.1 °F 97% 29.58 in 11.0 mi Calm Calm - 0.03 in Rain , Snow Light Rain
2:57 PM 33.8 °F - 33.8 °F 100% 29.58 in 11.0 mi Variable 1.2 mph - N/A Rain , Snow Light Rain
3:47 PM 33.8 °F - 33.8 °F 100% 29.54 in 8.0 mi Variable 1.2 mph - N/A Rain Light Rain
3:56 PM 34.7 °F - 33.8 °F 97% 29.54 in 8.0 mi South 1.2 mph - 0.02 in Rain Light Rain
4:21 PM 33.8 °F 30.8 °F 33.8 °F 100% 29.53 in 6.0 mi WSW 3.5 mph - N/A Rain Light Rain
4:42 PM 35.6 °F 32.8 °F 33.8 °F 93% 29.52 in 8.0 mi SW 3.5 mph - N/A Rain Light Rain
4:56 PM 34.7 °F - 34.0 °F 97% 29.51 in 7.0 mi West 1.2 mph - 0.02 in Rain Light Rain
5:01 PM 35.6 °F - 33.8 °F 93% 29.51 in 8.0 mi WSW 1.2 mph - N/A Rain Light Rain
5:46 PM 33.8 °F - 33.8 °F 100% 29.47 in 8.0 mi South 1.2 mph - N/A Rain Light Rain Showers
5:51 PM 33.8 °F - 33.8 °F 100% 29.46 in 8.0 mi Calm Calm - N/A Rain Light Rain Showers
5:56 PM 34.2 °F - 33.3 °F 97% 29.47 in 8.0 mi SSE 1.2 mph - 0.02 in Rain Light Rain Showers
6:11 PM 33.8 °F - 33.8 °F 100% 29.46 in 12.0 mi South 2.3 mph - N/A Rain Light Rain Showers
6:14 PM 33.8 °F - 33.8 °F 100% 29.46 in 12.0 mi SSE 2.3 mph - N/A   Overcast
6:23 PM 33.8 °F - 33.8 °F 100% 29.46 in 12.0 mi SE 2.3 mph - N/A Rain Light Rain Showers
6:56 PM 34.3 °F 27.0 °F 33.4 °F 97% 29.51 in 1.5 mi West 9.2 mph - N/A Rain Light Rain Showers
7:01 PM 33.8 °F 28.6 °F 33.8 °F 100% 29.51 in 0.5 mi West 5.8 mph - N/A Fog , Rain Rain Showers
7:02 PM 33.8 °F 28.6 °F 33.8 °F 100% 29.51 in 0.5 mi West 5.8 mph - N/A Fog , Rain Rain Showers
7:17 PM 33.8 °F - 33.8 °F 100% 29.50 in 0.4 mi Calm Calm - N/A Fog , Rain , Snow Light Rain Showers
7:27 PM 33.8 °F - 32.0 °F 93% 29.49 in 0.4 mi ESE 2.3 mph - N/A Fog , Rain Light Rain Showers
7:38 PM 33.8 °F 29.6 °F 32.0 °F 93% 29.46 in 0.5 mi ESE 4.6 mph - N/A Fog Fog
7:43 PM 33.8 °F 28.6 °F 32.0 °F 93% 29.46 in 0.6 mi East 5.8 mph - N/A Fog Fog
7:53 PM 33.8 °F 27.7 °F 32.0 °F 93% 29.45 in 0.6 mi East 6.9 mph - N/A Fog Fog
7:56 PM 33.3 °F 27.9 °F 32.7 °F 98% 29.45 in 0.6 mi ENE 5.8 mph - 0.02 in Fog Fog
8:01 PM 33.8 °F 29.6 °F 33.8 °F 100% 29.46 in 1.0 mi NNE 4.6 mph - N/A Fog Fog
8:06 PM 33.8 °F 29.6 °F 33.8 °F 100% 29.45 in 2.0 mi SE 4.6 mph - N/A   Mostly Cloudy
8:11 PM 33.8 °F 29.6 °F 33.8 °F 100% 29.45 in 4.0 mi Variable 4.6 mph - N/A   Mostly Cloudy
8:26 PM 33.8 °F 27.0 °F 33.8 °F 100% 29.48 in 2.8 mi WNW 8.1 mph - N/A   Mostly Cloudy
8:31 PM 33.8 °F 26.4 °F 33.8 °F 100% 29.48 in 2.0 mi WNW 9.2 mph - N/A   Mostly Cloudy
8:36 PM 33.8 °F 27.0 °F 33.8 °F 100% 29.50 in 0.8 mi NW 8.1 mph - N/A Fog Fog
8:46 PM 33.8 °F - 33.8 °F 100% 29.50 in 0.9 mi Variable 2.3 mph - N/A Fog Fog
8:47 PM 33.8 °F 30.8 °F 33.8 °F 100% 29.50 in 1.1 mi Variable 3.5 mph - N/A Rain Light Rain Showers
8:52 PM 33.8 °F 25.3 °F 33.8 °F 100% 29.49 in 3.0 mi South 11.5 mph 13.8 mph N/A Rain Light Rain
8:56 PM 33.4 °F 25.4 °F 33.1 °F 99% 29.49 in 4.0 mi South 10.4 mph 13.8 mph N/A Rain Light Rain
9:01 PM 33.8 °F 28.6 °F 33.8 °F 100% 29.50 in 3.0 mi NNE 5.8 mph 13.8 mph N/A Rain Light Rain
9:06 PM 33.8 °F - 33.8 °F 100% 29.49 in 3.0 mi Variable 2.3 mph - N/A Rain Light Rain Showers
9:14 PM 33.8 °F 29.6 °F 33.8 °F 100% 29.51 in 3.0 mi Variable 4.6 mph - N/A   Mostly Cloudy
9:29 PM 33.8 °F 27.0 °F 32.0 °F 93% 29.55 in 3.0 mi NW 8.1 mph - N/A   Mostly Cloudy
9:44 PM 32.0 °F - 32.0 °F 100% 29.55 in 5.0 mi West 2.3 mph - N/A   Scattered Clouds
9:56 PM 32.5 °F 29.3 °F 32.2 °F 99% 29.55 in 5.0 mi Variable 3.5 mph - N/A   Scattered Clouds
10:56 PM 36.5 °F 31.8 °F 32.2 °F 84% 29.56 in 12.0 mi SW 5.8 mph - N/A   Partly Cloudy
11:56 PM 34.2 °F 31.2 °F 31.6 °F 90% 29.62 in 12.0 mi SSW 3.5 mph - N/A   Mostly Cloudy